XE1GMR Weather Reports


Display with metric or nautical units.
time (UTC)temp
F
wind
direction
speed
MPH
gust
MPH
rain 1hr
in
rain 24hr
in
rain mn
in
humidity
%
barometer
mb
20260504022429 70 18 5.0 8.0 0.00 0.00 0.00 63 1122.8
20260504021925 70 59 2.0 5.0 0.00 0.00 0.00 63 1122.7
20260504021423 70 102 2.0 5.0 0.00 0.00 0.00 63 1123.0
20260504020920 70 100 4.0 6.0 0.00 0.00 0.00 63 1122.9
20260504020416 70 334 2.0 6.0 0.00 0.00 0.00 63 1122.8
20260504015913 70 85 2.0 6.0 0.00 0.00 0.00 63 1122.7
20260504015409 70 84 5.0 7.0 0.00 0.00 0.00 63 1122.2
20260504014906 70 99 5.0 9.0 0.00 0.00 0.00 63 1122.4
20260504014402 70 53 3.0 5.0 0.00 0.00 0.00 64 1122.4
20260504013859 71 32 3.0 9.0 0.00 0.00 0.00 64 1122.4
20260504013357 71 8 3.0 5.0 0.00 0.00 0.00 64 1122.0
20260504012853 71 33 3.0 7.0 0.00 0.00 0.00 64 1122.0
20260504012351 71 346 3.0 5.0 0.00 0.00 0.00 64 1121.8
20260504011848 71 61 3.0 5.0 0.00 0.00 0.00 63 1122.0
20260504011344 71 192 1.0 3.0 0.00 0.00 0.00 63 1122.1
20260504010841 71 133 0.0 3.0 0.00 0.00 0.00 63 1122.0
20260504010336 71 167 1.0 3.0 0.00 0.00 0.00 63 1122.1
20260504005833 71 212 1.0 2.0 0.00 0.00 0.00 63 1121.8
20260504005330 72 87 1.0 3.0 0.00 0.00 0.00 61 1121.6
20260504004827 72 102 1.0 3.0 0.00 0.00 0.00 60 1121.8
20260504004325 72 240 1.0 1.0 0.00 0.00 0.00 59 1121.8
20260504003821 72 273 0.0 1.0 0.00 0.00 0.00 59 1121.7
20260504003318 72 251 0.0 1.0 0.00 0.00 0.00 58 1121.6
20260504002815 72 42 3.0 6.0 0.00 0.00 0.00 58 1121.6
20260504002312 73 208 3.0 6.0 0.00 0.00 0.00 53 1121.7
20260504001809 73 304 2.0 3.0 0.00 0.00 0.00 53 1121.5
20260504001306 73 224 1.0 3.0 0.00 0.00 0.00 52 1121.3
20260504000803 73 226 1.0 3.0 0.00 0.00 0.00 53 1121.2
20260504000300 73 85 2.0 5.0 0.00 0.00 0.00 53 1121.2
20260503235758 73 95 3.0 5.0 0.00 0.00 0.00 53 1121.6
20260503235255 73 157 5.0 7.0 0.00 0.00 0.00 52 1121.3
20260503234753 75 108 3.0 7.0 0.00 0.00 0.00 51 1121.3
20260503234251 76 228 2.0 5.0 0.00 0.00 0.00 51 1121.2
20260503233747 76 230 2.0 5.0 0.00 0.00 0.00 50 1121.0
20260503233243 77 277 3.0 9.0 0.00 0.00 0.00 50 1121.0
20260503232740 78 265 5.0 7.0 0.00 0.00 0.00 48 1120.8
20260503232238 79 221 4.0 8.0 0.00 0.00 0.00 47 1120.7
20260503231736 80 270 4.0 7.0 0.00 0.00 0.00 46 1120.3
20260503231232 81 281 2.0 6.0 0.00 0.00 0.00 44 1120.2
20260503230728 81 81 3.0 6.0 0.00 0.00 0.00 44 1120.1
20260503230226 81 224 3.0 5.0 0.00 0.00 0.00 44 1120.2
20260503225718 80 257 3.0 6.0 0.00 0.00 0.00 46 1120.1
20260503225217 80 253 3.0 5.0 0.00 0.00 0.00 46 1120.2
20260503224715 81 185 4.0 7.0 0.00 0.00 0.00 46 1120.4
20260503224212 81 226 1.0 7.0 0.00 0.00 0.00 44 1120.5
20260503223710 80 232 2.0 8.0 0.00 0.00 0.00 44 1120.4
20260503223207 80 220 4.0 5.0 0.00 0.00 0.00 45 1120.5
20260503222703 80 203 5.0 6.0 0.00 0.00 0.00 45 1120.3
20260503222201 79 207 5.0 6.0 0.00 0.00 0.00 44 1120.4
20260503221659 79 231 2.0 8.0 0.00 0.00 0.00 45 1120.2
20260503221156 79 209 5.0 8.0 0.00 0.00 0.00 44 1120.2
20260503220653 80 209 4.0 6.0 0.00 0.00 0.00 43 1120.5
20260503220149 79 232 2.0 3.0 0.00 0.00 0.00 44 1120.4
20260503215647 80 202 2.0 7.0 0.00 0.00 0.00 44 1120.4
20260503215143 80 210 4.0 7.0 0.00 0.00 0.00 44 1120.4
20260503214642 81 194 3.0 5.0 0.00 0.00 0.00 42 1120.7
20260503214138 82 183 3.0 6.0 0.00 0.00 0.00 43 1120.5
20260503213632 82 232 3.0 6.0 0.00 0.00 0.00 42 1120.5
20260503213128 82 273 2.0 6.0 0.00 0.00 0.00 41 1120.5
20260503212625 83 251 5.0 7.0 0.00 0.00 0.00 41 1120.8
20260503212123 82 213 4.0 7.0 0.00 0.00 0.00 41 1120.5
20260503211620 83 213 3.0 7.0 0.00 0.00 0.00 42 1120.8
20260503211116 82 264 3.0 7.0 0.00 0.00 0.00 43 1120.8
20260503210612 82 216 4.0 6.0 0.00 0.00 0.00 42 1121.2
20260503210109 82 282 4.0 7.0 0.00 0.00 0.00 42 1121.2
20260503205605 82 275 3.0 5.0 0.00 0.00 0.00 42 1121.1
20260503205101 81 172 2.0 5.0 0.00 0.00 0.00 42 1121.3
20260503204558 82 79 4.0 6.0 0.00 0.00 0.00 42 1121.3
20260503204055 83 135 1.0 6.0 0.00 0.00 0.00 42 1121.1
20260503203552 81 91 1.0 2.0 0.00 0.00 0.00 44 1121.5
20260503203049 80 201 1.0 6.0 0.00 0.00 0.00 45 1121.7
20260503202547 80 241 2.0 5.0 0.00 0.00 0.00 45 1121.9
20260503202045 79 243 4.0 9.0 0.00 0.00 0.00 46 1121.9
20260503201543 78 218 3.0 6.0 0.00 0.00 0.00 47 1121.9
20260503201040 78 215 2.0 3.0 0.00 0.00 0.00 48 1122.0
20260503200536 78 256 4.0 8.0 0.00 0.00 0.00 48 1122.1
20260503200033 79 211 3.0 6.0 0.00 0.00 0.00 47 1122.2
20260503195530 79 251 1.0 5.0 0.00 0.00 0.00 47 1122.5
20260503195027 78 219 1.0 5.0 0.00 0.00 0.00 48 1122.4
20260503194525 80 209 6.0 8.0 0.00 0.00 0.00 47 1122.4
20260503194024 79 176 1.0 3.0 0.00 0.00 0.00 46 1122.6
20260503193521 78 214 1.0 3.0 0.00 0.00 0.00 47 1122.8
20260503193016 79 173 3.0 5.0 0.00 0.00 0.00 47 1122.7
20260503192512 78 98 2.0 5.0 0.00 0.00 0.00 48 1122.8
20260503192008 78 180 5.0 9.0 0.00 0.00 0.00 48 1122.7
20260503191505 78 238 3.0 6.0 0.00 0.00 0.00 48 1122.9
20260503191002 80 214 6.0 9.0 0.00 0.00 0.00 48 1123.0
20260503190459 80 168 2.0 5.0 0.00 0.00 0.00 47 1123.0
20260503185956 82 70 4.0 8.0 0.00 0.00 0.00 44 1123.0
20260503185452 81 116 1.0 3.0 0.00 0.00 0.00 43 1122.9
20260503184952 80 221 1.0 3.0 0.00 0.00 0.00 47 1123.4
20260503184448 80 232 1.0 2.0 0.00 0.00 0.00 45 1123.3
20260503183945 80 205 2.0 5.0 0.00 0.00 0.00 47 1123.5
20260503183441 79 135 4.0 7.0 0.00 0.00 0.00 47 1123.4
20260503182938 79 196 4.0 8.0 0.00 0.00 0.00 48 1123.6
20260503182437 79 70 4.0 9.0 0.00 0.00 0.00 49 1123.7
20260503181934 78 157 5.0 7.0 0.00 0.00 0.00 49 1123.8
20260503181432 79 89 1.0 2.0 0.00 0.00 0.00 48 1123.5
20260503180927 80 2 2.0 3.0 0.00 0.00 0.00 47 1123.8
20260503180427 79 157 2.0 5.0 0.00 0.00 0.00 47 1124.1
20260503175922 79 190 2.0 5.0 0.00 0.00 0.00 48 1124.2
20260503175421 79 72 7.0 9.0 0.00 0.00 0.00 48 1123.9
20260503174916 79 41 5.0 8.0 0.00 0.00 0.00 49 1124.1
20260503174414 79 181 2.0 3.0 0.00 0.00 0.00 49 1124.3
20260503173908 78 204 1.0 2.0 0.00 0.00 0.00 51 1124.4
20260503173405 78 226 1.0 3.0 0.00 0.00 0.00 51 1124.3
20260503172901 76 198 1.0 5.0 0.00 0.00 0.00 53 1124.3
20260503172359 76 262 2.0 6.0 0.00 0.00 0.00 52 1124.5
20260503171855 77 231 2.0 3.0 0.00 0.00 0.00 52 1124.5
20260503171352 77 253 2.0 2.0 0.00 0.00 0.00 51 1124.6
20260503170850 77 259 1.0 1.0 0.00 0.00 0.00 52 1124.8
20260503170346 77 126 0.0 2.0 0.00 0.00 0.00 52 1124.7
20260503150738 68 43 2.0 7.0 0.00 0.00 0.00 66 1125.2
20260503150234 67 105 2.0 5.0 0.00 0.00 0.00 68 1125.0
20260503140158 66 76 3.0 5.0 0.00 0.00 0.00 71 1124.5
20260503131129 65 96 1.0 2.0 0.00 0.00 0.00 71 1123.6
20260503130626 65 33 2.0 2.0 0.00 0.00 0.00 71 1123.6
20260503130124 65 358 1.0 3.0 0.00 0.00 0.00 71 1123.5
20260503110516 64 17 4.0 5.0 0.00 0.00 0.00 71 1122.7
20260503090408 65 13 3.0 7.0 0.00 0.00 0.00 71 1123.1
20260503081335 65 36 3.0 5.0 0.00 0.00 0.00 68 1123.3
20260503080831 65 355 2.0 3.0 0.00 0.00 0.00 69 1123.5
20260503080328 66 73 3.0 6.0 0.00 0.00 0.00 68 1123.2
20260503072759 66 33 2.0 5.0 0.00 0.00 0.00 68 1123.4
20260503072256 66 94 4.0 5.0 0.00 0.00 0.00 68 1123.2
20260503071752 66 13 3.0 6.0 0.00 0.00 0.00 68 1123.4
20260503071249 66 107 1.0 3.0 0.00 0.00 0.00 68 1123.3
20260503070745 66 159 2.0 5.0 0.00 0.00 0.00 68 1123.5
20260503070244 66 121 1.0 6.0 0.00 0.00 0.00 68 1123.3
20260503060214 66 72 4.0 7.0 0.00 0.00 0.00 69 1123.6
20260503054701 66 66 3.0 5.0 0.00 0.00 0.00 69 1123.5
20260503054159 66 51 3.0 6.0 0.00 0.00 0.00 69 1123.5
20260503053656 66 55 4.0 7.0 0.00 0.00 0.00 69 1123.2
20260503053155 67 128 3.0 5.0 0.00 0.00 0.00 69 1123.2
20260503052651 67 150 3.0 3.0 0.00 0.00 0.00 68 1123.0
20260503052147 67 213 0.0 1.0 0.00 0.00 0.00 66 1123.1
20260503051642 67 245 0.0 1.0 0.00 0.00 0.00 67 1123.3
20260503051141 67 246 0.0 0.0 0.00 0.00 0.00 67 1123.2
20260503050637 67 254 0.0 0.0 0.00 0.00 0.00 66 1123.3
20260503050134 67 321 1.0 1.0 0.00 0.00 0.00 66 1123.2
20260503045631 67 265 0.0 1.0 0.00 0.00 0.00 67 1123.1
20260503045128 67 274 0.0 1.0 0.00 0.00 0.00 66 1122.9
20260503044625 67 271 1.0 1.0 0.00 0.00 0.00 66 1123.0
20260503044122 67 356 1.0 2.0 0.00 0.00 0.00 66 1123.1
20260503043619 67 351 1.0 2.0 0.00 0.00 0.00 66 1123.4
20260503043116 68 57 1.0 6.0 0.00 0.00 0.00 66 1123.4
20260503042612 68 21 3.0 6.0 0.00 0.00 0.00 66 1123.2
20260503042108 68 41 1.0 2.0 0.00 0.00 0.00 66 1123.1
20260503041605 68 10 2.0 7.0 0.00 0.00 0.00 66 1123.2
20260503041103 68 342 1.0 3.0 0.00 0.00 0.00 66 1122.9
20260503040600 68 331 3.0 3.0 0.00 0.00 0.00 66 1123.1
20260503040057 68 268 0.0 1.0 0.00 0.00 0.00 66 1122.7
20260503035554 68 69 2.0 2.0 0.00 0.00 0.00 65 1122.9
20260503035052 69 52 2.0 5.0 0.00 0.00 0.00 64 1122.9
20260503034549 69 13 2.0 5.0 0.00 0.00 0.00 65 1123.0
20260503034046 69 317 2.0 3.0 0.00 0.00 0.00 65 1122.6
20260503033543 69 46 1.0 3.0 0.00 0.00 0.00 65 1122.5
20260503033041 69 15 3.0 6.0 0.00 0.00 0.00 64 1122.4
20260503032539 70 48 3.0 7.0 0.00 0.00 0.00 64 1122.1
20260503032037 70 11 1.0 3.0 0.00 0.00 0.00 64 1122.1
20260503031534 70 302 2.0 3.0 0.00 0.00 0.00 64 1122.0
20260503031031 70 79 2.0 5.0 0.00 0.00 0.00 64 1122.0
20260503030527 70 317 1.0 1.0 0.00 0.00 0.00 64 1121.9
20260503030025 70 87 1.0 3.0 0.00 0.00 0.00 65 1121.8
20260503025521 69 12 1.0 2.0 0.00 0.00 0.00 65 1121.7
20260503025019 69 22 2.0 2.0 0.00 0.00 0.00 65 1121.9
20260503024515 70 50 6.0 9.0 0.00 0.00 0.00 65 1121.5
20260503024012 70 0 3.0 7.0 0.00 0.00 0.00 64 1121.3
20260503023509 71 95 5.0 8.0 0.00 0.00 0.00 63 1121.4
20260503023006 71 90 3.0 7.0 0.00 0.00 0.00 62 1121.4